| time (UTC) | temp F | wind direction | speed MPH | gust MPH | rain 1hr in | rain 24hr in | rain mn in | humidity % | barometer mb |
| 20260505011329 | 73 | 208 | 4.0 | 8.0 | 0.00 | 0.00 | 0.00 | 54 | |
| 20260505010825 | 73 | 181 | 2.0 | 6.0 | 0.00 | 0.00 | 0.00 | 53 | |
| 20260505010321 | 73 | 190 | 7.0 | 9.0 | 0.00 | 0.00 | 0.00 | 53 | |
| 20260505005817 | 73 | 211 | 5.0 | 8.0 | 0.00 | 0.00 | 0.00 | 52 | |
| 20260505005314 | 74 | 203 | 7.0 | 8.0 | 0.00 | 0.00 | 0.00 | 52 | |
| 20260505004812 | 74 | 213 | 2.0 | 7.0 | 0.00 | 0.00 | 0.00 | 52 | |
| 20260505004308 | 74 | 189 | 3.0 | 6.0 | 0.00 | 0.00 | 0.00 | 51 | |
| 20260505003806 | 74 | 203 | 4.0 | 6.0 | 0.00 | 0.00 | 0.00 | 49 | |
| 20260505003303 | 75 | 191 | 3.0 | 7.0 | 0.00 | 0.00 | 0.00 | 47 | |
| 20260505002759 | 75 | 214 | 3.0 | 9.0 | 0.00 | 0.00 | 0.00 | 47 | |
| 20260505002256 | 75 | 200 | 6.0 | 8.0 | 0.00 | 0.00 | 0.00 | 46 | |
| 20260505001754 | 76 | 212 | 5.0 | 11.0 | 0.00 | 0.00 | 0.00 | 46 | |
| 20260505001251 | 76 | 210 | 9.0 | 9.0 | 0.00 | 0.00 | 0.00 | 46 | |
| 20260505000748 | 76 | 206 | 4.0 | 8.0 | 0.00 | 0.00 | 0.00 | 45 | |
| 20260505000246 | 76 | 190 | 7.0 | 9.0 | 0.00 | 0.00 | 0.00 | 45 | |
| 20260504235742 | 77 | 187 | 5.0 | 8.0 | 0.00 | 0.00 | 0.00 | 45 | |
| 20260504235238 | 77 | 228 | 4.0 | 16.0 | 0.00 | 0.00 | 0.00 | 44 | |
| 20260504234736 | 77 | 191 | 6.0 | 11.0 | 0.00 | 0.00 | 0.00 | 44 | |
| 20260504234233 | 78 | 219 | 4.0 | 12.0 | 0.00 | 0.00 | 0.00 | 43 | |
| 20260504233729 | 78 | 208 | 8.0 | 13.0 | 0.00 | 0.00 | 0.00 | 43 | |
| 20260504233225 | 78 | 203 | 6.0 | 9.0 | 0.00 | 0.00 | 0.00 | 43 | |
| 20260504232722 | 78 | 214 | 12.0 | 14.0 | 0.00 | 0.00 | 0.00 | 42 | |
| 20260504232219 | 79 | 208 | 5.0 | 9.0 | 0.00 | 0.00 | 0.00 | 43 | |
| 20260504231716 | 79 | 194 | 5.0 | 11.0 | 0.00 | 0.00 | 0.00 | 42 | |
| 20260504231212 | 80 | 208 | 4.0 | 9.0 | 0.00 | 0.00 | 0.00 | 42 | |
| 20260504230708 | 80 | 193 | 5.0 | 10.0 | 0.00 | 0.00 | 0.00 | 42 | |
| 20260504230208 | 80 | 211 | 8.0 | 13.0 | 0.00 | 0.00 | 0.00 | 41 | |
| 20260504225706 | 80 | 219 | 6.0 | 15.0 | 0.00 | 0.00 | 0.00 | 40 | |
| 20260504225201 | 80 | 204 | 9.0 | 14.0 | 0.00 | 0.00 | 0.00 | 40 | |
| 20260504224659 | 80 | 126 | 6.0 | 13.0 | 0.00 | 0.00 | 0.00 | 40 | |
| 20260504224156 | 80 | 209 | 13.0 | 13.0 | 0.00 | 0.00 | 0.00 | 38 | |
| 20260504223653 | 80 | 184 | 2.0 | 12.0 | 0.00 | 0.00 | 0.00 | 40 | |
| 20260504223148 | 80 | 202 | 9.0 | 16.0 | 0.00 | 0.00 | 0.00 | 39 | |
| 20260504222645 | 80 | 182 | 9.0 | 16.0 | 0.00 | 0.00 | 0.00 | 39 | |
| 20260504222142 | 80 | 230 | 6.0 | 16.0 | 0.00 | 0.00 | 0.00 | 41 | |
| 20260504221639 | 80 | 215 | 9.0 | 18.0 | 0.00 | 0.00 | 0.00 | 39 | |
| 20260504221136 | 81 | 219 | 8.0 | 17.0 | 0.00 | 0.00 | 0.00 | 40 | |
| 20260504220632 | 81 | 184 | 11.0 | 12.0 | 0.00 | 0.00 | 0.00 | 39 | |
| 20260504220130 | 81 | 215 | 8.0 | 17.0 | 0.00 | 0.00 | 0.00 | 41 | |
| 20260504215626 | 81 | 202 | 6.0 | 16.0 | 0.00 | 0.00 | 0.00 | 40 | |
| 20260504215124 | 80 | 185 | 13.0 | 16.0 | 0.00 | 0.00 | 0.00 | 40 | |
| 20260504214620 | 81 | 222 | 8.0 | 15.0 | 0.00 | 0.00 | 0.00 | 39 | |
| 20260504214116 | 81 | 212 | 11.0 | 19.0 | 0.00 | 0.00 | 0.00 | 39 | |
| 20260504213613 | 81 | 205 | 8.0 | 12.0 | 0.00 | 0.00 | 0.00 | 40 | |
| 20260504213110 | 81 | 201 | 8.0 | 17.0 | 0.00 | 0.00 | 0.00 | 40 | |
| 20260504212606 | 81 | 236 | 6.0 | 15.0 | 0.00 | 0.00 | 0.00 | 39 | |
| 20260504212103 | 81 | 201 | 3.0 | 15.0 | 0.00 | 0.00 | 0.00 | 38 | |
| 20260504211600 | 82 | 208 | 5.0 | 12.0 | 0.00 | 0.00 | 0.00 | 39 | |
| 20260504211056 | 81 | 202 | 10.0 | 17.0 | 0.00 | 0.00 | 0.00 | 38 | |
| 20260504210554 | 81 | 190 | 7.0 | 19.0 | 0.00 | 0.00 | 0.00 | 41 | |
| 20260504210050 | 80 | 228 | 5.0 | 17.0 | 0.00 | 0.00 | 0.00 | 40 | |
| 20260504205548 | 82 | 245 | 5.0 | 16.0 | 0.00 | 0.00 | 0.00 | 40 | |
| 20260504205046 | 80 | 181 | 5.0 | 21.0 | 0.00 | 0.00 | 0.00 | 40 | |
| 20260504204544 | 81 | 200 | 14.0 | 21.0 | 0.00 | 0.00 | 0.00 | 37 | |
| 20260504204043 | 82 | 203 | 7.0 | 18.0 | 0.00 | 0.00 | 0.00 | 38 | |
| 20260504203540 | 81 | 194 | 10.0 | 18.0 | 0.00 | 0.00 | 0.00 | 38 | |
| 20260504203038 | 81 | 194 | 9.0 | 15.0 | 0.00 | 0.00 | 0.00 | 42 | |
| 20260504202533 | 80 | 193 | 7.0 | 14.0 | 0.00 | 0.00 | 0.00 | 42 | |
| 20260504202030 | 80 | 344 | 5.0 | 14.0 | 0.00 | 0.00 | 0.00 | 40 | |
| 20260504201527 | 81 | 180 | 14.0 | 16.0 | 0.00 | 0.00 | 0.00 | 40 | |
| 20260504201025 | 81 | 250 | 2.0 | 14.0 | 0.00 | 0.00 | 0.00 | 40 | |
| 20260504200521 | 81 | 244 | 9.0 | 21.0 | 0.00 | 0.00 | 0.00 | 39 | |
| 20260504200018 | 81 | 207 | 13.0 | 19.0 | 0.00 | 0.00 | 0.00 | 39 | |
| 20260504195514 | 81 | 189 | 8.0 | 16.0 | 0.00 | 0.00 | 0.00 | 41 | |
| 20260504195011 | 81 | 209 | 10.0 | 16.0 | 0.00 | 0.00 | 0.00 | 40 | |
| 20260504194507 | 81 | 189 | 7.0 | 12.0 | 0.00 | 0.00 | 0.00 | 41 | |
| 20260504194002 | 81 | 204 | 7.0 | 13.0 | 0.00 | 0.00 | 0.00 | 41 | |
| 20260504193500 | 81 | 211 | 11.0 | 20.0 | 0.00 | 0.00 | 0.00 | 41 | |
| 20260504192959 | 81 | 192 | 11.0 | 14.0 | 0.00 | 0.00 | 0.00 | 40 | |
| 20260504192456 | 81 | 204 | 12.0 | 19.0 | 0.00 | 0.00 | 0.00 | 40 | |
| 20260504191954 | 81 | 202 | 9.0 | 16.0 | 0.00 | 0.00 | 0.00 | 39 | |
| 20260504191452 | 81 | 227 | 6.0 | 9.0 | 0.00 | 0.00 | 0.00 | 43 | |
| 20260504190947 | 79 | 194 | 8.0 | 16.0 | 0.00 | 0.00 | 0.00 | 43 | |
| 20260504190443 | 79 | 203 | 6.0 | 16.0 | 0.00 | 0.00 | 0.00 | 43 | |
| 20260504185940 | 78 | 226 | 13.0 | 20.0 | 0.00 | 0.00 | 0.00 | 43 | |
| 20260504185437 | 79 | 181 | 13.0 | 16.0 | 0.00 | 0.00 | 0.00 | 41 | |
| 20260504184933 | 80 | 199 | 4.0 | 15.0 | 0.00 | 0.00 | 0.00 | 43 | |
| 20260504184429 | 80 | 214 | 8.0 | 13.0 | 0.00 | 0.00 | 0.00 | 41 | |
| 20260504183925 | 80 | 193 | 5.0 | 10.0 | 0.00 | 0.00 | 0.00 | 44 | |
| 20260504183422 | 80 | 190 | 2.0 | 16.0 | 0.00 | 0.00 | 0.00 | 41 | |
| 20260504182920 | 79 | 171 | 16.0 | 17.0 | 0.00 | 0.00 | 0.00 | 42 | |
| 20260504182417 | 79 | 195 | 9.0 | 18.0 | 0.00 | 0.00 | 0.00 | 43 | |
| 20260504181914 | 79 | 211 | 10.0 | 21.0 | 0.00 | 0.00 | 0.00 | 41 | |
| 20260504181411 | 79 | 205 | 16.0 | 17.0 | 0.00 | 0.00 | 0.00 | 41 | |
| 20260504180910 | 79 | 227 | 3.0 | 14.0 | 0.00 | 0.00 | 0.00 | 44 | |
| 20260504180408 | 79 | 207 | 8.0 | 13.0 | 0.00 | 0.00 | 0.00 | 43 | |
| 20260504175906 | 79 | 190 | 6.0 | 12.0 | 0.00 | 0.00 | 0.00 | 44 | |
| 20260504175402 | 78 | 193 | 11.0 | 15.0 | 0.00 | 0.00 | 0.00 | 44 | |
| 20260504174900 | 79 | 194 | 10.0 | 16.0 | 0.00 | 0.00 | 0.00 | 45 | |
| 20260504174358 | 78 | 199 | 5.0 | 13.0 | 0.00 | 0.00 | 0.00 | 43 | |
| 20260504173855 | 78 | 213 | 9.0 | 17.0 | 0.00 | 0.00 | 0.00 | 43 | |
| 20260504173351 | 78 | 198 | 10.0 | 19.0 | 0.00 | 0.00 | 0.00 | 44 | |
| 20260504172848 | 78 | 228 | 6.0 | 12.0 | 0.00 | 0.00 | 0.00 | 44 | |
| 20260504172345 | 77 | 265 | 5.0 | 13.0 | 0.00 | 0.00 | 0.00 | 45 | |
| 20260504171840 | 77 | 257 | 6.0 | 14.0 | 0.00 | 0.00 | 0.00 | 44 | |
| 20260504171338 | 77 | 193 | 12.0 | 17.0 | 0.00 | 0.00 | 0.00 | 43 | |
| 20260504170835 | 77 | 203 | 10.0 | 13.0 | 0.00 | 0.00 | 0.00 | 46 | |
| 20260504170332 | 77 | 211 | 11.0 | 16.0 | 0.00 | 0.00 | 0.00 | 44 | |
| 20260504160250 | 75 | 196 | 11.0 | 15.0 | 0.00 | 0.00 | 0.00 | 48 | |
| 20260504150716 | 71 | 199 | 8.0 | 9.0 | 0.00 | 0.00 | 0.00 | 52 | |
| 20260504150213 | 71 | 174 | 4.0 | 13.0 | 0.00 | 0.00 | 0.00 | 51 | |
| 20260504141142 | 67 | 236 | 6.0 | 15.0 | 0.00 | 0.00 | 0.00 | 57 | |
| 20260504140638 | 67 | 209 | 9.0 | 14.0 | 0.00 | 0.00 | 0.00 | 54 | |
| 20260504140134 | 66 | 212 | 16.0 | 16.0 | 0.00 | 0.00 | 0.00 | 56 | |
| 20260504130602 | 64 | 204 | 8.0 | 15.0 | 0.00 | 0.00 | 0.00 | 59 | |
| 20260504110450 | 62 | 192 | 5.0 | 10.0 | 0.00 | 0.00 | 0.00 | 59 | |
| 20260504100412 | 62 | 203 | 5.0 | 8.0 | 0.00 | 0.00 | 0.00 | 60 | |
| 20260504081805 | 64 | 199 | 9.0 | 14.0 | 0.00 | 0.00 | 0.00 | 56 | |
| 20260504081302 | 64 | 198 | 7.0 | 11.0 | 0.00 | 0.00 | 0.00 | 56 | |
| 20260504080758 | 64 | 193 | 5.0 | 10.0 | 0.00 | 0.00 | 0.00 | 56 | |
| 20260504080255 | 64 | 202 | 4.0 | 12.0 | 0.00 | 0.00 | 0.00 | 56 | |
| 20260504070222 | 66 | 202 | 5.0 | 12.0 | 0.00 | 0.00 | 0.00 | 53 | |
| 20260504060143 | 66 | 211 | 5.0 | 9.0 | 0.00 | 0.00 | 0.00 | 52 | |
| 20260504050611 | 66 | 197 | 6.0 | 15.0 | 0.00 | 0.00 | 0.00 | 51 | |
| 20260504050108 | 66 | 208 | 7.0 | 12.0 | 0.00 | 0.00 | 0.00 | 50 | |
| 20260504045605 | 66 | 228 | 5.0 | 11.0 | 0.00 | 0.00 | 0.00 | 50 | |
| 20260504045100 | 66 | 213 | 4.0 | 13.0 | 0.00 | 0.00 | 0.00 | 50 | |
| 20260504044558 | 66 | 210 | 11.0 | 14.0 | 0.00 | 0.00 | 0.00 | 49 | |
| 20260504044054 | 66 | 203 | 5.0 | 11.0 | 0.00 | 0.00 | 0.00 | 49 | |
| 20260504043552 | 66 | 209 | 6.0 | 12.0 | 0.00 | 0.00 | 0.00 | 49 | |
| 20260504043049 | 66 | 202 | 5.0 | 12.0 | 0.00 | 0.00 | 0.00 | 48 | |
| 20260504042546 | 66 | 215 | 5.0 | 14.0 | 0.00 | 0.00 | 0.00 | 48 | |
| 20260504042043 | 66 | 213 | 12.0 | 15.0 | 0.00 | 0.00 | 0.00 | 47 | |
| 20260504041538 | 66 | 193 | 7.0 | 10.0 | 0.00 | 0.00 | 0.00 | 47 | |
| 20260504041035 | 66 | 239 | 3.0 | 11.0 | 0.00 | 0.00 | 0.00 | 47 | |
| 20260504040532 | 66 | 195 | 4.0 | 8.0 | 0.00 | 0.00 | 0.00 | 46 | |
| 20260504040029 | 67 | 220 | 9.0 | 11.0 | 0.00 | 0.00 | 0.00 | 46 | |
| 20260504035526 | 66 | 211 | 6.0 | 8.0 | 0.00 | 0.00 | 0.00 | 47 | |
| 20260504035022 | 67 | 188 | 9.0 | 10.0 | 0.00 | 0.00 | 0.00 | 46 | |
| 20260504034520 | 67 | 191 | 6.0 | 9.0 | 0.00 | 0.00 | 0.00 | 46 | |
| 20260504034017 | 67 | 203 | 7.0 | 11.0 | 0.00 | 0.00 | 0.00 | 46 | |
| 20260504033515 | 67 | 163 | 5.0 | 10.0 | 0.00 | 0.00 | 0.00 | 46 | |
| 20260504033012 | 67 | 209 | 6.0 | 9.0 | 0.00 | 0.00 | 0.00 | 46 | |
| 20260504032509 | 67 | 180 | 7.0 | 8.0 | 0.00 | 0.00 | 0.00 | 46 | |
| 20260504032005 | 67 | 219 | 7.0 | 7.0 | 0.00 | 0.00 | 0.00 | 46 | |
| 20260504031502 | 67 | 181 | 5.0 | 6.0 | 0.00 | 0.00 | 0.00 | 47 | |
| 20260504030959 | 67 | 201 | 5.0 | 7.0 | 0.00 | 0.00 | 0.00 | 47 | |
| 20260504030456 | 67 | 183 | 7.0 | 9.0 | 0.00 | 0.00 | 0.00 | 48 | |
| 20260504025952 | 67 | 216 | 2.0 | 7.0 | 0.00 | 0.00 | 0.00 | 48 | |
| 20260504025449 | 66 | 183 | 2.0 | 6.0 | 0.00 | 0.00 | 0.00 | 48 | |
| 20260504024946 | 66 | 220 | 5.0 | 7.0 | 0.00 | 0.00 | 0.00 | 48 | |
| 20260504024443 | 66 | 212 | 2.0 | 7.0 | 0.00 | 0.00 | 0.00 | 48 | |
| 20260504023940 | 66 | 195 | 3.0 | 5.0 | 0.00 | 0.00 | 0.00 | 49 | |
| 20260504023436 | 66 | 223 | 4.0 | 5.0 | 0.00 | 0.00 | 0.00 | 48 | |
| 20260504022932 | 66 | 224 | 2.0 | 5.0 | 0.00 | 0.00 | 0.00 | 48 | |
| 20260504022428 | 67 | 198 | 2.0 | 7.0 | 0.00 | 0.00 | 0.00 | 47 | |
| 20260504021925 | 67 | 225 | 2.0 | 4.0 | 0.00 | 0.00 | 0.00 | 48 | |
| 20260504021422 | 67 | 188 | 4.0 | 4.0 | 0.00 | 0.00 | 0.00 | 47 | |
| 20260504020920 | 67 | 197 | 2.0 | 3.0 | 0.00 | 0.00 | 0.00 | 46 | |
| 20260504020416 | 67 | 247 | 1.0 | 4.0 | 0.00 | 0.00 | 0.00 | 46 | |
| 20260504015913 | 67 | 208 | 2.0 | 4.0 | 0.00 | 0.00 | 0.00 | 46 | |
| 20260504015409 | 68 | 208 | 2.0 | 4.0 | 0.00 | 0.00 | 0.00 | 45 | |
| 20260504014905 | 68 | 225 | 1.0 | 4.0 | 0.00 | 0.00 | 0.00 | 45 | |
| 20260504014401 | 68 | 214 | 2.0 | 4.0 | 0.00 | 0.00 | 0.00 | 44 | |
| 20260504013858 | 68 | 225 | 4.0 | 5.0 | 0.00 | 0.00 | 0.00 | 44 | |
| 20260504013356 | 68 | 195 | 2.0 | 4.0 | 0.00 | 0.00 | 0.00 | 44 | |
| 20260504012853 | 68 | 196 | 3.0 | 5.0 | 0.00 | 0.00 | 0.00 | 44 | |
| 20260504012350 | 69 | 192 | 4.0 | 5.0 | 0.00 | 0.00 | 0.00 | 44 | |
| 20260504011848 | 69 | 197 | 3.0 | 5.0 | 0.00 | 0.00 | 0.00 | 44 |